This is the latest recevied weather packets stored in our database for station/object SV9TNF-55. If no packets are shown the sender has not sent any weather packets the latest 10 day(s).
| Time | Temp. | Humidity | Pressure | Rain* | Wind** | Luminosity | Snow |
|---|---|---|---|---|---|---|---|
| 1787966195 | 20° C | 65% | 1013.8 hPa | 0 mm | 1.34 m/s, 337° | - | - |
| 1787965595 | 20° C | 65% | 1013.8 hPa | 0 mm | 1.34 m/s, 337° | - | - |
| 1787964996 | 20.56° C | 65% | 1013.8 hPa | 0 mm | 2.24 m/s, 270° | - | - |
| 1787964395 | 20.56° C | 65% | 1013.6 hPa | 0 mm | 2.24 m/s, 315° | - | - |
| 1787963794 | 20.56° C | 64% | 1013.9 hPa | 0 mm | 1.79 m/s, 292° | - | - |
| 1787963194 | 21.11° C | 64% | 1013.9 hPa | 0 mm | 2.68 m/s, 270° | - | - |
| 1787962594 | 20.56° C | 65% | 1014 hPa | 0 mm | 2.68 m/s, 292° | - | - |
| 1787961994 | 21.11° C | 64% | 1014.2 hPa | 0 mm | 1.79 m/s, 292° | - | - |
| 1787961394 | 21.11° C | 65% | 1014.3 hPa | 0 mm | 2.68 m/s, 292° | - | - |
| 1787960795 | 21.11° C | 65% | 1014.3 hPa | 0 mm | 3.58 m/s, 292° | - | - |
| 1787960194 | 21.11° C | 67% | 1014.4 hPa | 0 mm | 2.24 m/s, 292° | - | - |
| 1787959594 | 21.11° C | 66% | 1014.5 hPa | 0 mm | 3.13 m/s, 270° | - | - |
| 1787958995 | 21.11° C | 66% | 1014.5 hPa | 0 mm | 1.79 m/s, 292° | - | - |
| 1787958395 | 21.11° C | 65% | 1014.6 hPa | 0 mm | 2.68 m/s, 292° | - | - |
| 1787957793 | 21.67° C | 65% | 1014.9 hPa | 0 mm | 2.24 m/s, 292° | - | - |
| 1787957194 | 21.67° C | 65% | 1014.9 hPa | 0 mm | 3.13 m/s, 270° | - | - |
| 1787956593 | 21.67° C | 65% | 1014.8 hPa | 0 mm | 2.68 m/s, 292° | - | - |
| 1787955993 | 21.67° C | 64% | 1015 hPa | 0 mm | 2.24 m/s, 270° | - | - |
| 1787955393 | 21.67° C | 63% | 1015 hPa | 0 mm | 2.24 m/s, 270° | - | - |
| 1787954795 | 21.67° C | 63% | 1015.1 hPa | 0 mm | 2.68 m/s, 270° | - | - |
| 1787954193 | 22.22° C | 62% | 1015 hPa | 0 mm | 2.68 m/s, 270° | - | - |
| 1787953594 | 22.22° C | 62% | 1014.9 hPa | 0 mm | 1.79 m/s, 292° | - | - |
| 1787952993 | 22.22° C | 62% | 1014.7 hPa | 0 mm | 2.68 m/s, 270° | - | - |
| 1787952392 | 22.22° C | 62% | 1015 hPa | 0 mm | 1.34 m/s, 270° | - | - |
| 1787951794 | 22.22° C | 62% | 1015.3 hPa | 0 mm | 1.34 m/s, 270° | - | - |
* Rain latest hour (hover to see other rain measurements)
** Current wind speed in m/s (hover to see current wind gust speed)